User: anonymous   Login
Location: Unspecified
(0.0000°N, 0.0000°E)
Time: 20:39:06
(UTC+00:00)
Language:

OPTUS D2 - Orbit

View from above orbital plane
View from above orbital plane
View from above satellite
View from above satellite

Ground track
Ground track

The orbit data is extracted from the following two-line orbital elements,

1 32252U 07044A   15141.59919748 -.00000201  00000-0  00000+0 0  9996
2 32252 000.0260 009.5918 0002527 046.1612 190.8582 01.00270755 27911
Epoch (UTC): 21 May 2015 14:22:50
Eccentricity: 0.0002527
inclination: 0.0260°
perigee height: 35776 km
apogee height: 35797 km
right ascension of ascending node: 9.5918°
argument of perigee: 46.1612°
revolutions per day: 1.00270755
mean anomaly at epoch: 190.8582°
orbit number at epoch: 2791

The dashed part of the orbit path shows where the satellite is in the earth's shadow,  

DLR